Time,TemperatureF,DewpointF,PressureIn,WindDirection,WindDirectionDegrees,WindSpeedMPH,WindSpeedGustMPH,Humidity,HourlyPrecipIn,Conditions,Clouds,dailyrainin,SoftwareType,DateUTC
2013-01-30 01:32:00,56.0,55.0,30.09,North,0,0.0,0.0,96,0.00,,,0.00,,2013-01-30 06:32:00,
2013-01-30 01:42:00,56.0,55.0,30.09,North,0,0.0,0.0,96,0.00,,,0.00,,2013-01-30 06:42:00,
2013-01-30 01:52:00,56.0,55.0,30.09,North,0,0.0,0.0,96,0.00,,,0.00,,2013-01-30 06:52:00,
2013-01-30 02:02:00,56.0,55.0,30.09,WSW,242,0.0,1.0,97,0.00,,,0.00,,2013-01-30 07:02:00,
2013-01-30 02:11:00,56.0,55.0,30.09,WSW,242,0.0,1.0,97,0.00,,,0.00,,2013-01-30 07:11:00,
2013-01-30 02:21:00,56.0,55.0,30.08,WSW,253,0.0,1.0,97,0.00,,,0.00,,2013-01-30 07:21:00,
2013-01-30 02:32:00,56.0,55.0,30.08,WSW,246,0.0,1.0,96,0.00,,,0.00,,2013-01-30 07:32:00,
2013-01-30 02:42:00,56.0,55.0,30.08,WSW,246,0.0,1.0,96,0.00,,,0.00,,2013-01-30 07:42:00,
2013-01-30 02:52:00,57.0,56.0,30.08,WSW,246,0.0,1.0,97,0.00,,,0.00,,2013-01-30 07:52:00,
2013-01-30 03:00:00,57.0,56.0,30.07,WSW,245,0.0,1.0,97,0.00,,,0.00,,2013-01-30 08:00:00,
2013-01-30 03:01:00,57.0,56.0,30.08,WSW,246,0.0,1.0,96,0.00,,,0.00,,2013-01-30 08:01:00,
2013-01-30 03:11:00,57.0,56.0,30.08,WSW,246,0.0,1.0,96,0.00,,,0.00,,2013-01-30 08:11:00,
2013-01-30 03:21:00,57.0,56.0,30.07,WSW,245,0.0,1.0,97,0.00,,,0.00,,2013-01-30 08:21:00,
2013-01-30 03:32:00,57.0,56.0,30.07,WSW,245,0.0,1.0,97,0.00,,,0.00,,2013-01-30 08:32:00,
2013-01-30 03:42:00,57.0,56.0,30.07,WSW,245,0.0,1.0,97,0.00,,,0.00,,2013-01-30 08:42:00,
2013-01-30 03:52:00,57.0,56.0,30.07,WSW,245,0.0,1.0,97,0.00,,,0.00,,2013-01-30 08:52:00,
2013-01-30 05:32:00,60.0,59.0,30.04,SW,231,0.0,4.0,97,0.00,,,0.00,,2013-01-30 10:32:00,
2013-01-30 05:42:00,60.0,59.0,30.04,SW,231,0.0,4.0,97,0.00,,,0.00,,2013-01-30 10:42:00,
2013-01-30 05:52:00,60.0,59.0,30.04,SW,232,1.0,6.0,97,0.00,,,0.00,,2013-01-30 10:52:00,
2013-01-30 06:02:00,60.0,59.0,30.03,SW,233,1.0,4.0,97,0.00,,,0.00,,2013-01-30 11:02:00,
2013-01-30 06:10:00,60.0,59.0,30.04,WSW,250,1.0,3.0,97,0.00,,,0.00,,2013-01-30 11:10:00,
2013-01-30 06:11:00,60.0,59.0,30.03,SW,233,1.0,4.0,97,0.00,,,0.00,,2013-01-30 11:11:00,
2013-01-30 06:22:00,60.0,59.0,30.04,SW,225,1.0,3.0,97,0.00,,,0.00,,2013-01-30 11:22:00,
2013-01-30 06:33:00,60.0,59.0,30.04,WSW,250,1.0,3.0,97,0.00,,,0.00,,2013-01-30 11:33:00,
2013-01-30 06:42:00,60.0,59.0,30.04,WSW,250,1.0,3.0,97,0.00,,,0.00,,2013-01-30 11:42:00,
2013-01-30 06:52:00,60.0,59.0,30.04,WSW,250,1.0,3.0,97,0.00,,,0.00,,2013-01-30 11:52:00,
2013-01-30 07:02:00,60.0,59.0,30.04,WSW,250,1.0,3.0,97,0.00,,,0.00,,2013-01-30 12:02:00,
2013-01-30 11:03:00,68.0,63.0,29.99,SW,223,4.0,12.0,84,0.00,,,0.01,,2013-01-30 16:03:00,
2013-01-30 11:13:00,68.0,63.0,29.99,SW,223,4.0,12.0,84,0.00,,,0.01,,2013-01-30 16:13:00,
2013-01-30 11:23:00,68.0,62.0,29.99,SW,215,3.0,11.0,82,0.00,,,0.01,,2013-01-30 16:23:00,
2013-01-30 11:32:00,68.0,63.0,29.98,SW,215,4.0,11.0,84,0.00,,,0.01,,2013-01-30 16:32:00,
2013-01-30 11:42:00,68.0,63.0,29.98,SW,215,4.0,11.0,84,0.00,,,0.01,,2013-01-30 16:42:00,
2013-01-30 11:52:00,68.0,63.0,29.98,SW,215,4.0,11.0,84,0.00,,,0.01,,2013-01-30 16:52:00,
2013-01-30 12:02:00,68.0,63.0,29.98,SW,217,3.0,11.0,83,0.00,,,0.01,,2013-01-30 17:02:00,
2013-01-30 12:12:00,68.0,63.0,29.98,SW,217,3.0,11.0,83,0.00,,,0.01,,2013-01-30 17:12:00,
2013-01-30 12:23:00,68.0,62.0,29.97,SW,222,3.0,10.0,81,0.00,,,0.01,,2013-01-30 17:23:00,
2013-01-30 12:33:00,69.0,63.0,29.93,SW,215,5.0,18.0,80,0.00,,,0.01,,2013-01-30 17:33:00,
2013-01-30 12:43:00,69.0,63.0,29.93,SW,215,5.0,18.0,80,0.00,,,0.01,,2013-01-30 17:43:00,
2013-01-30 12:53:00,70.0,63.0,29.93,SW,220,5.0,12.0,78,0.00,,,0.01,,2013-01-30 17:53:00,
2013-01-30 13:03:00,70.0,62.0,29.93,SW,217,5.0,12.0,77,0.00,,,0.01,,2013-01-30 18:03:00,
2013-01-30 13:13:00,70.0,62.0,29.93,SW,217,5.0,12.0,77,0.00,,,0.01,,2013-01-30 18:13:00,
2013-01-30 13:23:00,70.0,63.0,29.92,SW,218,4.0,16.0,78,0.00,,,0.01,,2013-01-30 18:23:00,
2013-01-30 13:33:00,69.0,63.0,29.90,SSW,211,4.0,12.0,80,0.00,,,0.01,,2013-01-30 18:33:00,
2013-01-30 13:42:00,69.0,63.0,29.90,SSW,211,4.0,12.0,80,0.00,,,0.01,,2013-01-30 18:42:00,
2013-01-30 13:52:00,68.0,62.0,29.90,SW,221,5.0,12.0,80,0.00,,,0.01,,2013-01-30 18:52:00,
2013-01-30 14:00:00,68.0,62.0,29.89,SW,220,3.0,11.0,82,0.00,,,0.01,,2013-01-30 19:00:00,
2013-01-30 14:03:00,68.0,62.0,29.89,SW,214,3.0,9.0,80,0.00,,,0.01,,2013-01-30 19:03:00,
2013-01-30 14:12:00,68.0,62.0,29.89,SW,214,3.0,9.0,80,0.00,,,0.01,,2013-01-30 19:12:00,
2013-01-30 14:22:00,68.0,62.0,29.89,SW,220,3.0,11.0,82,0.00,,,0.01,,2013-01-30 19:22:00,
2013-01-30 14:32:00,68.0,62.0,29.89,SW,220,3.0,11.0,82,0.00,,,0.01,,2013-01-30 19:32:00,
2013-01-30 14:43:00,68.0,62.0,29.89,SW,220,3.0,11.0,82,0.00,,,0.01,,2013-01-30 19:43:00,
2013-01-30 14:52:00,68.0,62.0,29.89,SW,220,3.0,11.0,82,0.00,,,0.01,,2013-01-30 19:52:00,